Change the Weather History Date:

Friday, March 8, 2013

  Actual Average Record
Temperature  
Mean Temperature 44 °F -  
Max Temperature 59 °F 47 °F 72 °F (1987)
Min Temperature 28 °F 24 °F 3 °F (1969)
Degree Days  
Heating Degree Days 22    
Moisture  
Dew Point 36 °F    
Average Humidity 75    
Maximum Humidity 100    
Minimum Humidity 50    
Precipitation  
Precipitation 0.07 in - - ()
Sea Level Pressure  
Sea Level Pressure 29.97 in    
Wind  
Wind Speed 12 mph (SE)    
Max Wind Speed 28 mph    
Max Gust Speed 43 mph    
Visibility 9 miles    
Events Rain , Thunderstorm    
Averages and records for this station are not official NWS values.
T = Trace of Precipitation, MM = Missing Value Source: NWS Daily Summary

Daily Weather History Graph

Daily Weather History Graph

Search for Another Location

Airport or City:

Trip Planner

Search our weather history database for the weather conditions in past years. The results will help you decide how hot, cold, wet, or windy it might be!

Date:

Astronomy

Mar. 08, 2013 Rise Set
Actual Time 6:54 AM CST 6:31 PM CST
Civil Twilight 6:27 AM CST 6:58 PM CST
Nautical Twilight 5:55 AM CST 7:30 PM CST
Astronomical Twilight 5:23 AM CST 8:02 PM CST
Moon 4:41 AM CST (3/8) 3:27 PM CST (3/8)
Length of Visible Light 12h 31m
Length of Day
11h 36m
Waning Crescent, 11% of the Moon is Illuminated
Mar 8
Waning Crescent
Mar 11
New
Mar 19
First Quarter
Mar 27
Full
Apr 2
Last Quarter

Hourly Weather History & Observations

Time (CST) Temp. Windchill Dew Point Humidity Pressure Visibility Wind Dir Wind Speed Gust Speed Precip Events Conditions
12:15 AM 34.7 °F 25.9 °F 29.8 °F 82% 30.09 in 10.0 mi ESE 12.7 mph - N/A   Clear
12:35 AM 33.8 °F 24.8 °F 29.8 °F 85% 30.09 in 10.0 mi ESE 12.7 mph - N/A   Clear
12:55 AM 33.4 °F 24.3 °F 29.3 °F 85% 30.09 in 7.0 mi ESE 12.7 mph - N/A   Clear
1:15 AM 32.7 °F 25.0 °F 29.3 °F 87% 30.10 in 7.0 mi ESE 9.2 mph - N/A   Clear
1:35 AM 32.0 °F 24.8 °F 28.8 °F 88% 30.10 in 7.0 mi East 8.1 mph - N/A   Clear
1:55 AM 31.6 °F 24.4 °F 28.4 °F 88% 30.10 in 7.0 mi ESE 8.1 mph - N/A   Clear
2:15 AM 31.5 °F 24.2 °F 28.4 °F 88% 30.09 in 7.0 mi ESE 8.1 mph - N/A   Clear
2:35 AM 31.5 °F 23.5 °F 28.4 °F 88% 30.09 in 7.0 mi ESE 9.2 mph - N/A   Clear
2:55 AM 31.5 °F 23.5 °F 28.2 °F 88% 30.08 in 7.0 mi ESE 9.2 mph - N/A   Clear
3:15 AM 30.7 °F 23.3 °F 27.9 °F 89% 30.08 in 7.0 mi ESE 8.1 mph - N/A   Clear
3:35 AM 30.2 °F 21.9 °F 27.9 °F 91% 30.07 in 7.0 mi ESE 9.2 mph - N/A   Clear
3:55 AM 29.8 °F 22.2 °F 27.5 °F 91% 30.06 in 7.0 mi ESE 8.1 mph - N/A   Clear
4:15 AM 29.5 °F 22.5 °F 27.5 °F 92% 30.06 in 7.0 mi ESE 6.9 mph - N/A   Clear
4:35 AM 29.3 °F 22.3 °F 27.3 °F 92% 30.06 in 7.0 mi East 6.9 mph - N/A   Clear
4:55 AM 28.0 °F 20.8 °F 26.4 °F 94% 30.06 in 5.0 mi East 6.9 mph - N/A   Clear
5:15 AM 28.8 °F 20.9 °F 27.1 °F 94% 30.06 in 7.0 mi East 8.1 mph - N/A   Clear
5:35 AM 29.1 °F 20.6 °F 27.1 °F 92% 30.05 in 7.0 mi East 9.2 mph - N/A   Clear
5:55 AM 28.9 °F 21.1 °F 27.1 °F 93% 30.05 in 7.0 mi East 8.1 mph - N/A   Clear
6:15 AM 29.1 °F 22.1 °F 27.3 °F 93% 30.06 in 7.0 mi East 6.9 mph - N/A   Clear
6:35 AM 30.0 °F 23.2 °F 28.0 °F 92% 30.06 in 7.0 mi ESE 6.9 mph - N/A   Clear
6:55 AM 30.7 °F 24.9 °F 28.4 °F 91% 30.08 in 7.0 mi ESE 5.8 mph - N/A   Clear
7:15 AM 31.3 °F 24.7 °F 28.8 °F 90% 30.07 in 7.0 mi ESE 6.9 mph - N/A   Scattered Clouds
7:35 AM 31.5 °F 24.2 °F 29.1 °F 91% 30.05 in 5.0 mi ESE 8.1 mph - N/A   Scattered Clouds
7:55 AM 32.4 °F 26.0 °F 29.7 °F 90% 30.06 in 7.0 mi ESE 6.9 mph - N/A   Clear
8:15 AM 34.5 °F 27.3 °F 30.7 °F 86% 30.05 in 7.0 mi ESE 9.2 mph - N/A   Clear
8:35 AM 37.6 °F 30.0 °F 31.6 °F 79% 30.05 in 10.0 mi ESE 11.5 mph - N/A   Clear
8:55 AM 37.6 °F 30.5 °F 31.1 °F 77% 30.06 in 10.0 mi SE 10.4 mph - N/A   Scattered Clouds
9:15 AM 38.7 °F 30.1 °F 31.8 °F 76% 30.03 in 10.0 mi ESE 15.0 mph - N/A   Scattered Clouds
9:35 AM 39.2 °F 30.8 °F 31.8 °F 75% 30.04 in 10.0 mi SE 15.0 mph - N/A   Clear
9:55 AM 39.2 °F 33.0 °F 32.0 °F 75% 30.03 in 10.0 mi SE 9.2 mph 15.0 mph N/A   Clear
10:15 AM 40.3 °F 36.3 °F 32.0 °F 72% 30.06 in 10.0 mi SSE 5.8 mph - N/A   Clear
10:35 AM 43.2 °F 39.7 °F 32.9 °F 67% 30.05 in 10.0 mi SSE 5.8 mph - N/A   Clear
10:55 AM 44.6 °F 39.2 °F 32.7 °F 63% 30.03 in 10.0 mi SE 10.4 mph - N/A   Clear
11:15 AM 45.0 °F 38.9 °F 33.1 °F 63% 30.01 in 10.0 mi ESE 12.7 mph - N/A   Scattered Clouds
11:35 AM 45.7 °F 41.5 °F 33.3 °F 62% 30.05 in 10.0 mi SSE 8.1 mph - N/A   Scattered Clouds
11:55 AM 49.3 °F - 34.7 °F 57% 30.03 in 10.0 mi SSE 9.2 mph - N/A   Clear
12:15 PM 51.6 °F - 35.6 °F 54% 30.02 in 10.0 mi SSE 11.5 mph - N/A   Clear
12:35 PM 51.6 °F - 35.8 °F 55% 30.01 in 10.0 mi SSE 13.8 mph - N/A   Clear
12:55 PM 53.2 °F - 36.5 °F 53% 30.00 in 10.0 mi SSE 12.7 mph - N/A   Clear
1:15 PM 54.5 °F - 37.2 °F 52% 29.98 in 10.0 mi SSE 17.3 mph - N/A   Clear
1:35 PM 54.0 °F - 37.4 °F 54% 29.97 in 10.0 mi SE 17.3 mph - N/A   Clear
1:55 PM 54.5 °F - 37.9 °F 54% 29.96 in 10.0 mi SSE 17.3 mph 23.0 mph N/A   Clear
2:15 PM 57.0 °F - 39.0 °F 51% 29.93 in 10.0 mi SE 18.4 mph 23.0 mph N/A   Clear
2:35 PM 56.3 °F - 38.7 °F 52% 29.93 in 10.0 mi SE 18.4 mph - N/A   Clear
2:55 PM 56.8 °F - 39.2 °F 52% 29.92 in 10.0 mi SE 17.3 mph 21.9 mph N/A   Clear
3:15 PM 57.9 °F - 39.6 °F 50% 29.92 in 10.0 mi SE 17.3 mph 24.2 mph N/A   Scattered Clouds
3:35 PM 58.8 °F - 40.1 °F 50% 29.90 in 10.0 mi SE 18.4 mph 23.0 mph N/A   Scattered Clouds
3:55 PM 59.0 °F - 40.6 °F 51% 29.89 in 10.0 mi SE 18.4 mph 24.2 mph N/A   Clear
4:15 PM 58.3 °F - 41.0 °F 53% 29.89 in 10.0 mi SE 17.3 mph 20.7 mph N/A   Mostly Cloudy
4:35 PM 57.6 °F - 41.2 °F 54% 29.87 in 10.0 mi SE 17.3 mph - N/A   Overcast
4:55 PM 57.4 °F - 41.9 °F 56% 29.87 in 10.0 mi SE 13.8 mph - N/A   Overcast
5:15 PM 57.4 °F - 42.8 °F 58% 29.86 in 10.0 mi ESE 12.7 mph - N/A   Overcast
5:35 PM 55.9 °F - 41.9 °F 59% 29.87 in 10.0 mi SE 12.7 mph - N/A   Overcast
5:55 PM 55.4 °F - 42.1 °F 61% 29.87 in 10.0 mi SE 12.7 mph - N/A   Overcast
6:15 PM 54.9 °F - 42.8 °F 64% 29.86 in 10.0 mi SE 12.7 mph - N/A   Overcast
6:35 PM 55.2 °F - 43.5 °F 65% 29.86 in 10.0 mi SE 13.8 mph - N/A   Overcast
6:55 PM 54.9 °F - 43.7 °F 66% 29.86 in 10.0 mi SE 15.0 mph - N/A   Overcast
7:15 PM 54.1 °F - 43.0 °F 66% 29.85 in 10.0 mi SE 16.1 mph - N/A   Overcast
7:35 PM 54.1 °F - 43.2 °F 66% 29.86 in 10.0 mi SE 16.1 mph 20.7 mph N/A   Overcast
7:55 PM 54.0 °F - 43.7 °F 68% 29.85 in 10.0 mi SE 17.3 mph - N/A   Overcast
8:15 PM 53.6 °F - 44.1 °F 70% 29.85 in 10.0 mi SE 15.0 mph 20.7 mph N/A   Overcast
8:35 PM 53.6 °F - 44.2 °F 71% 29.86 in 10.0 mi SSE 13.8 mph - N/A   Overcast
8:55 PM 53.2 °F - 44.8 °F 73% 29.85 in 10.0 mi SE 15.0 mph 21.9 mph N/A   Overcast
9:15 PM 52.9 °F - 45.0 °F 74% 29.85 in 10.0 mi SE 12.7 mph - N/A   Overcast
9:35 PM 52.7 °F - 45.7 °F 77% 29.84 in 10.0 mi SE 13.8 mph - N/A   Overcast
9:55 PM 52.9 °F - 46.6 °F 79% 29.84 in 10.0 mi SSE 15.0 mph 21.9 mph N/A   Overcast
10:15 PM 52.0 °F - 48.4 °F 88% 29.84 in 10.0 mi SSE 18.4 mph 24.2 mph N/A   Overcast
10:35 PM 50.9 °F - 48.7 °F 92% 29.83 in 7.0 mi SSE 15.0 mph 25.3 mph N/A   Light Drizzle
10:55 PM 50.0 °F - 48.6 °F 95% 29.79 in 7.0 mi SE 23.0 mph 32.2 mph N/A Rain , Thunderstorm Light Thunderstorms and Rain
11:15 PM 49.1 °F - 49.1 °F 100% 29.78 in 3.0 mi SSE 27.6 mph 42.6 mph 0.05 in Rain Rain
11:35 PM 48.9 °F - 48.9 °F 100% 29.80 in 5.0 mi SSE 23.0 mph 31.1 mph 0.06 in   Light Drizzle
11:55 PM 48.4 °F - 48.4 °F 100% 29.80 in 4.0 mi SSE 18.4 mph 26.5 mph 0.07 in Rain Light Rain